Regional Weather Roundup
Issued by NWS Burlington, VT

Home | Current Version | Previous Version | Text Only | Print | Product List | Glossary On
Versions: 1 2 3 4 5 6 7 8 9 10 11 12 13 14 15 16 17 18 19 20 21 22 23 24 25 26 27 28 29 30 31 32 33 34 35 36 37 38 39 40 41 42 43 44 45 46 47 48 49 50
000
ASUS41 KBTV 020030
RWRBTV
VERMONT REGIONAL WEATHER ROUNDUP
NATIONAL WEATHER SERVICE BURLINGTON VT
800 PM EDT TUE SEP 01 2015

NOTE: "FAIR" INDICATES FEW OR NO CLOUDS BELOW 12,000 FEET WITH NO
SIGNIFICANT WEATHER AND/OR OBSTRUCTIONS TO VISIBILITY.

* THESE REPORTS ARE NOT UNDER NWS QUALITY CONTROL AND/OR DO NOT
  REPORT WEATHER SUCH AS PRECIPITATION AND FOG.

VTZ001>019-020100-
_____VERMONT_____


CITY           SKY/WX    TMP DP  RH WIND       PRES   REMARKS
BURLINGTON     CLEAR     74  58  57 SE3       29.99S
6HR MIN TEMP:  74; 6HR MAX TEMP:  85;

MONTPELIER     CLEAR     66  60  81 CALM      30.08R
6HR MIN TEMP:  65; 6HR MAX TEMP:  81;

MORRISVILLE    CLEAR     69  63  81 CALM      30.04R
6HR MIN TEMP:  69; 6HR MAX TEMP:  84;

ST. JOHNSBURY*   N/A     69  63  81 MISG      30.02R
6HR MIN TEMP:  69; 6HR MAX TEMP:  81; 6HR PCP:  0.01;

LYNDONVILLE*   FAIR      66  59  78 CALM      30.07R
6HR MIN TEMP:  69; 6HR MAX TEMP:  79;

MIDDLEBURY*    FAIR      75  54  48 SE3       30.01R
6HR MIN TEMP:  73; 6HR MAX TEMP:  85;

RUTLAND*       CLEAR     70  57  64 SE8       30.06R
6HR MIN TEMP:  72; 6HR MAX TEMP:  82;

SPRINGFIELD    CLEAR     71  64  78 N5        30.03R
6HR MIN TEMP:  71; 6HR MAX TEMP:  84;

HIGHGATE*      FAIR      68  63  83 CALM      30.00S
6HR MIN TEMP:  69; 6HR MAX TEMP:  82;

NEWPORT*       FAIR      63  61  92 CALM      30.04S
6HR MIN TEMP:  65; 6HR MAX TEMP:  78;

BENNINGTON     CLEAR     66  62  87 SE6       30.04S
6HR MIN TEMP:  65; 6HR MAX TEMP:  85;

GALLUP MILLS*    N/A     61 N/A N/A MISG        N/A
MT. MANSFIELD*   N/A     63 N/A N/A NW21        N/A

_____LAKE CHAMPLAIN_____


CITY           SKY/WX    TMP DP  RH WIND       PRES   REMARKS
COLCHESTER RF*   N/A     79  64  61 S9          N/A
DIAMOND ISL*     N/A     79  63  57 SW1         N/A

$$

NYZ007-026>031-035-052-083-020100-
_____NORTHERN NEW YORK_____


CITY           SKY/WX    TMP DP  RH WIND       PRES   REMARKS
PLATTSBURGH    CLEAR     72  62  71 NW5       29.99R
6HR MIN TEMP:  71; 6HR MAX TEMP:  81;

SARANAC LAKE   CLEAR     72  64  76 VRB3      30.06R
6HR MIN TEMP:  72; 6HR MAX TEMP:  82;

MASSENA        CLEAR     74  66  76 SW7       30.01R
6HR MIN TEMP:  74; 6HR MAX TEMP:  83;

OGDENSBURG*    CLEAR     70  66  88 SW3       30.02S
POTSDAM*       CLEAR     70  70 100 SW7       30.03R
STARK FALLS*     N/A     75 N/A N/A SW3         N/A
WATERTOWN      CLEAR     70  66  87 SW3       30.03S FOG
6HR MIN TEMP:  68; 6HR MAX TEMP:  79;

FT DRUM        CLEAR     71  66  84 S6        30.04S
6HR MIN TEMP:  71; 6HR MAX TEMP:  81;

ALBANY         PTCLDY    77  63  61 CALM      30.02R
6HR MIN TEMP:  77; 6HR MAX TEMP:  87;

GLENS FALLS    CLEAR     75  64  68 S3        30.00S
6HR MIN TEMP:  75; 6HR MAX TEMP:  86;


$$
NHZ002-005-011-020100-
_____NEW HAMPSHIRE_____


CITY           SKY/WX    TMP DP  RH WIND       PRES   REMARKS
LEBANON        CLEAR     68  63  84 CALM      30.02R
6HR MIN TEMP:  67; 6HR MAX TEMP:  84;

KEENE          CLEAR     66  59  77 CALM      30.05R
6HR MIN TEMP:  68; 6HR MAX TEMP:  82;

MT WASHINGTON  PTCLDY    64   9  11 W10         N/A
6HR MIN TEMP:  59; 6HR MAX TEMP:  65;

PLYMOUTH       FAIR      64  61  91 CALM      30.03R
6HR MIN TEMP:  65; 6HR MAX TEMP:  82;

WHITEFIELD     CLEAR     65  59  81 CALM      30.05S
6HR MIN TEMP:  65; 6HR MAX TEMP:  80;


$$

_____REGIONAL QUEBEC LOCATIONS_____


CITY           SKY/WX    TMP DP  RH WIND       PRES   REMARKS
MONTREAL       PTCLDY    75  66  73 SW6       29.98S
QUEBEC CITY    PTCLDY    66  59  77 W3        29.96F
SHERBROOKE     CLEAR     63  59  88 SE2       30.02S

_____REGIONAL ONTARIO LOCATIONS_____


CITY           SKY/WX    TMP DP  RH WIND       PRES   REMARKS
OTTAWA         CLEAR     73  68  83 S6        30.00R

______KEY______
VSB  - VISIBILITY IN MILES
WCI  - WIND CHILL INDEX
HX   - HEAT INDEX
$$
NNNN



USA.gov is the U.S. government's official web portal to all federal, state and local government web resources and services.